Pottstown, PA

8:22 PM EST on December 06, 2019 (GMT -0500)
Pottstown Limerick

Weather History for KPTW - August, 2019

Change the Weather History Date:

Monday, August 26, 2019

  Actual Average (KRDG) Record (KRDG)
Temperature  
Mean Temperature 64 °F -  
Max Temperature 73 °F 79 °F 99 °F (1948)
Min Temperature 55 °F 60 °F 47 °F (1977)
Degree Days  
Heating Degree Days 1    
Growing Degree Days 14 (Base 50)    
Moisture  
Dew Point 56 °F    
Average Humidity 78    
Maximum Humidity 100    
Minimum Humidity 57    
Precipitation  
Precipitation 0.00 in - - ()
Sea Level Pressure  
Sea Level Pressure 30.20 in    
Wind  
Wind Speed 3 mph (NE)    
Max Wind Speed 9 mph    
Max Gust Speed -    
Visibility 10 miles    
Events      
Averages and records for this station are not official NWS values.
T = Trace of Precipitation, MM = Missing Value Source: NWS Daily Summary

Daily Weather History Graph

Daily Weather History Graph

Search for Another Location

Airport or City:

Astronomy

Aug. 26, 2019 Rise Set
Actual Time 6:23 AM EDT 7:43 PM EDT
Civil Twilight 5:55 AM EDT 8:11 PM EDT
Nautical Twilight 5:21 AM EDT 8:45 PM EDT
Astronomical Twilight 4:45 AM EDT 9:21 PM EDT
Moon 1:46 AM EDT (8/26) 5:05 PM EDT (8/26)
Length of Visible Light 14h 16m
Length of Day
13h 19m
Waning Crescent, 19% of the Moon is Illuminated
Aug 26
Waning Crescent
Aug 30
New
Sep 5
First Quarter
Sep 14
Full
Sep 21
Last Quarter

Hourly Weather History & Observations

Time (EDT) Temp. Dew Point Humidity Pressure Visibility Wind Dir Wind Speed Gust Speed Precip Events Conditions
12:54 AM 57.9 °F 57.9 °F 100% 30.23 in 10.0 mi Calm Calm - N/A   Clear
1:54 AM 55.9 °F 55.9 °F 100% 30.21 in 10.0 mi Calm Calm - N/A   Clear
2:54 AM 55.9 °F 55.9 °F 100% 30.21 in 9.0 mi Calm Calm - N/A   Clear
3:54 AM 57.0 °F 57.0 °F 100% 30.22 in 10.0 mi Calm Calm - N/A   Clear
4:54 AM 55.9 °F 55.9 °F 100% 30.22 in 10.0 mi Calm Calm - N/A   Clear
5:54 AM 55.9 °F 55.9 °F 100% 30.22 in 10.0 mi NE 4.6 mph - N/A   Clear
6:54 AM 55.9 °F 55.0 °F 97% 30.24 in 9.0 mi NE 6.9 mph - N/A   Clear
7:54 AM 57.9 °F 55.9 °F 93% 30.24 in 9.0 mi NE 9.2 mph - N/A   Clear
8:54 AM 60.1 °F 57.0 °F 90% 30.24 in 9.0 mi NE 6.9 mph - N/A   Mostly Cloudy
9:54 AM 62.1 °F 55.9 °F 80% 30.24 in 9.0 mi ENE 8.1 mph - N/A   Overcast
10:16 AM 63.0 °F 55.0 °F 75% 30.25 in 10.0 mi East 4.6 mph - N/A   Scattered Clouds
10:28 AM 64.0 °F 55.9 °F 75% 30.25 in 10.0 mi Variable 5.8 mph - N/A   Mostly Cloudy
10:54 AM 64.0 °F 55.9 °F 75% 30.24 in 9.0 mi NE 3.5 mph - N/A   Overcast
11:54 AM 66.0 °F 55.0 °F 68% 30.23 in 10.0 mi Variable 3.5 mph - N/A   Overcast
12:21 PM 64.9 °F 55.0 °F 70% 30.24 in 10.0 mi ENE 6.9 mph - N/A   Scattered Clouds
12:35 PM 66.0 °F 55.9 °F 70% 30.23 in 10.0 mi ENE 6.9 mph - N/A   Mostly Cloudy
12:54 PM 66.0 °F 55.9 °F 70% 30.23 in 10.0 mi Variable 5.8 mph - N/A   Overcast
1:50 PM 66.2 °F 55.4 °F 68% 30.22 in 10.0 mi NE 6.9 mph - N/A   Partly Cloudy
1:54 PM 68.0 °F 55.9 °F 65% 30.21 in 10.0 mi NNE 6.9 mph - N/A   Partly Cloudy
2:54 PM 70.0 °F 57.0 °F 63% 30.18 in 10.0 mi Calm Calm - N/A   Partly Cloudy
3:54 PM 71.1 °F 57.0 °F 61% 30.16 in 10.0 mi Variable 3.5 mph - N/A   Mostly Cloudy
4:54 PM 73.0 °F 57.0 °F 57% 30.14 in 10.0 mi North - - N/A   Partly Cloudy
5:54 PM 72.0 °F 57.0 °F 59% 30.14 in 10.0 mi Variable 5.8 mph - N/A   Mostly Cloudy
6:54 PM 70.0 °F 55.0 °F 59% 30.13 in 10.0 mi Variable 4.6 mph - N/A   Clear
7:54 PM 66.9 °F 52.0 °F 59% 30.14 in 10.0 mi Calm Calm - N/A   Clear
8:54 PM 63.0 °F 52.0 °F 67% 30.16 in 10.0 mi Calm Calm - N/A   Clear
9:54 PM 61.0 °F 52.0 °F 72% 30.16 in 10.0 mi Calm Calm - N/A   Clear
10:54 PM 59.0 °F 54.0 °F 83% 30.18 in 10.0 mi Calm Calm - N/A   Clear
11:54 PM 57.9 °F 55.0 °F 90% 30.17 in 10.0 mi Calm Calm - N/A   Clear